Вернуться в каталог

STARLINK-34283

АктивенСвязьVLEO
NORAD 64214·PAYLOAD·🇺🇸 United States

Запущен May 31, 2025 с Vandenberg Space Force Base

Loading…

Ближайшие Пролёты (ближайшие 24 часа)

TLE

СвежийSource: CelesTrak SupGP

Эпоха: Sep 14, 2026, 15:46 UTC

1 64214C 25117M   26257.65743056 -.00020281  00000+0 -59929-3 0  2579
2 64214  53.1584 237.3590 0001437  84.5355 184.9089 15.34395945    17

Отслеживайте STARLINK-34283 в реальном времени с AllMySat

Download on the App Store